Miscellaneous Local Product
Issued by NWS Hastings, NE

Home | Current Version | Previous Version | Graphics & Text | Print | Product List | Glossary On
Versions: 1 2 3 4 5 6 7 8 9 10 11 12 13 14 15 16 17 18 19 20 21 22 23 24 25 26 27 28 29 30 31 32 33 34 35 36 37 38 39 40 41 42 43 44 45 46 47 48 49 50
210
AXUS43 KGID 280102
MISGRI

GID CWA HOURLY WEATHER ROUNDUP
NATIONAL WEATHER SERVICE HASTINGS NE
800 PM CDT WED JUL 27 2016

NOTE: "FAIR" INDICATES FEW OR NO CLOUDS BELOW 12,000 FEET WITH NO
SIGNIFICANT WEATHER AND/OR OBSTRUCTIONS TO VISIBILITY.

...SOUTH CENTRAL NEBRASKA...

CITY           SKY/WX    TMP DP  RH WIND       PRES   REMARKS
GRAND ISLAND   CLEAR     83  65  54 NE6       30.02R
HASTINGS       CLEAR     83  68  60 NE6       30.03R
KEARNEY        CLEAR     82  21  10 NE6       30.04R
ORD            CLOUDY    73  62  68 N13       30.04R
YORK           CLEAR     77  72  83 NW5       30.00R
AURORA         CLEAR     81  67  63 NE3       30.01R
LEXINGTON      CLEAR     81  69  67 E5        30.04S
HOLDREGE       CLEAR     79  69  71 N3        30.03R
HEBRON         CLEAR     84  65  53 N6        29.96S

...NEBRASKA PANHANDLE...

CITY           SKY/WX    TMP DP  RH WIND       PRES   REMARKS
CHADRON        SUNNY     78  55  44 NE13      30.08R
ALLIANCE       SUNNY     80  58  46 E17G23    30.10R
SCOTTSBLUFF    CLOUDY    83  55  38 E10       30.08R
SIDNEY         CLOUDY    80  59  48 SE14      30.14R

...WESTERN AND NORTH CENTRAL NEBRASKA...

CITY           SKY/WX    TMP DP  RH WIND       PRES   REMARKS
VALENTINE      CLOUDY    74  66  76 MISG      30.08S
AINSWORTH      CLOUDY    68  64  84 N6        30.09S
ONEILL         RAIN      65  62  91 N8        30.07R
BROKEN BOW     LGT RAIN  69  64  84 N5        30.07R
IMPERIAL       PTSUNNY   85  59  41 NE13      30.06R
NORTH PLATTE   SUNNY     82  64  54 NE6       30.04F
MCCOOK         SUNNY     84  65  52 E13       30.02R

...EASTERN NEBRASKA...

CITY           SKY/WX    TMP DP  RH WIND       PRES   REMARKS
NORFOLK        CLOUDY    79  65  62 NW7       30.00R
SO SIOUX CITY  CLEAR     81  68  64 NW5       29.94R
TEKAMAH        CLOUDY    82  68  62 N3        29.94R
COLUMBUS       CLEAR     79  64  61 NW3       29.99R
ALBION         MOCLDY    77  67  72 N5        30.03R
OMAHA EPPLEY   MOCLDY    84  71  65 N6        29.92S
OFFUTT AFB     MOCLDY    83  71  66 NE7       29.92R
MILLARD        CLEAR     84  69  61 N3        29.92R
LINCOLN        CLEAR     84  69  60 N9        29.95R
NEBRASKA CITY  CLEAR     80  69  69 NW3       29.93S
BEATRICE       CLEAR     83  69  61 NW6       29.95R
FALLS CITY     CLEAR     83  72  69 N5        29.91R

...NORTHERN KANSAS...

CITY           SKY/WX    TMP DP  RH WIND       PRES   REMARKS
GOODLAND       SUNNY     87  60  40 SE12      30.03F
HILL CITY      CLEAR     87  68  52 E7        29.98R HX  90
NORTON         CLEAR     88  57  35 E5        30.00R
SMITH CENTER   CLEAR     84  66  54 NE6       29.98R
BELOIT         CLEAR     86  70  58 CALM      29.93S HX  90
HAYS           CLEAR     90  66  45 SE7       29.95S HX  92
RUSSELL        CLEAR     89  66  46 E6        29.94R HX  91
CONCORDIA      CLEAR     86  70  58 E3        29.95R HX  90
SALINA         CLEAR     90  69  50 NE7       29.93S HX  94
TOPEKA         CLEAR     86  71  60 E3        29.91S HX  91



USA.gov is the U.S. government's official web portal to all federal, state and local government web resources and services.